Location: Hope
(40.9110°N, 74.9680°W)
Time: 19:47:43
(UTC-05:00)

OTV 5 (USA 277) - Pass Details

Date: 27 January 2019
Orbit: 342 x 346 km, 54.5° (Epoch: 17 February)

Event Time Altitude Azimuth Distance (km) Brightness Sun altitude
Exits shadow 05:16:24 25° 140° (SE) 739 ? -22.4°
Maximum altitude 05:16:37 25° 131° (SE) 733 ? -22.4°
Drops below altitude 10° 05:19:04 10° 72° (ENE) 1,292 ? -21.9°
Sets 05:21:15 0° 59° (ENE) 2,136 ? -21.5°
